Weather Service Report


325 
ASUS44 KJAN 281810
RWRMS 

MISSISSIPPI HOURLY WEATHER ROUNDUP
NATIONAL WEATHER SERVICE JACKSON MS
1200 PM CST WED JAN 28 2015

NOTE: "FAIR: INDICATES FEW OR NO CLOUDS BELOW 12,000 FEET WITH NO
SIGNIFICANT WEATHER AND/OR OBSTRUCTIONS TO VISIBILITY.

MSZ001>002-007>008-010>013-018>021-025>028-034>036-281900-
NORTHWEST MISSISSIPPI
  
CITY           SKY/WX    TMP DP  RH WIND       PRES   REMARKS
CLARKSDALE     FAIR      52  36  54 SE7       30.28F                  
CLEVELAND      FAIR      54  38  56 SE10      30.27F                  
GREENWOOD      FAIR      57  34  41 VRB3      30.27F                  
6HR MIN TEMP:  38; 6HR MAX TEMP:  57;                                

GREENVILLE     FAIR      55  37  50 SE12      30.26F                  
6HR MIN TEMP:  36; 6HR MAX TEMP:  55;                                

GRENADA        FAIR      52  32  46 E9        30.29F                  
OLIVE BRANCH   MOSUNNY   48  32  53 SE7       30.27F                  
OXFORD         FAIR      50  28  43 S8        30.28F                  
TUNICA         FAIR      52  32  46 S7        30.28F                  
$$

MSZ003>006-009-014>017-022>024-029>033-037>039-281900-
NORTHEAST MISSISSIPPI
  
CITY           SKY/WX    TMP DP  RH WIND       PRES   REMARKS
COLUMBUS AFB   FAIR      48  29  47 VRB2      30.30F                  
6HR MIN TEMP:  27; 6HR MAX TEMP:  49;                                

CORINTH        FAIR      48  30  49 E6        30.28F                  
GOLDN TRIANGLE SUNNY     48  30  49 S5        30.30F                  
STARKVILLE     FAIR      50  32  50 E3        30.30F                  
TUPELO         FAIR      48  28  46 SE7       30.29F                  
6HR MIN TEMP:  28; 6HR MAX TEMP:  48;                                

$$

MSZ040-058-281900-
CENTRAL MISSISSIPPI
  
CITY           SKY/WX    TMP DP  RH WIND       PRES   REMARKS
JACKSON INTL   FAIR      60  31  33 SE8       30.28F                  
6HR MIN TEMP:  37; 6HR MAX TEMP:  60;                                

JACKSON HAWKNS FAIR      60  30  32 SE3       30.28F                  
6HR MIN TEMP:  40; 6HR MAX TEMP:  60;                                

MERIDIAN KEY   FAIR      57  29  34 N7        30.29F                  
6HR MIN TEMP:  32; 6HR MAX TEMP:  57;                                

MERIDIAN NAS   FAIR      54  27  35 E7        30.30F                  
6HR MIN TEMP:  31; 6HR MAX TEMP:  54;                                

RAYMOND        FAIR      63  57  82 SE5       30.26F                  
VICKSBURG      FAIR      61  38  42 VRB3      30.26F                  
6HR MIN TEMP:  40; 6HR MAX TEMP:  61;                                

$$

MSZ059>079-281900-
SOUTH MISSISSIPPI
  
CITY           SKY/WX    TMP DP  RH WIND       PRES   REMARKS
BROOKHAVEN     FAIR      61  34  36 E5        30.29F                  
HATTIESBURG    FAIR      59  32  36 VRB3      30.30F                  
6HR MIN TEMP:  34; 6HR MAX TEMP:  59;                                

MCCOMB         FAIR      62  36  37 S7        30.28F                  
6HR MIN TEMP:  43; 6HR MAX TEMP:  63;                                

NATCHEZ        FAIR      64  37  36 S7        30.26F                  
6HR MIN TEMP:  46; 6HR MAX TEMP:  64;                                

PINE BELT      FAIR      57  32  38 CALM      30.30F                  
6HR MIN TEMP:  37; 6HR MAX TEMP:  57;                                

$$

MSZ080>082-281900-
COASTAL MISSISSIPPI
  
CITY           SKY/WX    TMP DP  RH WIND       PRES   REMARKS
BAY ST LOUIS   SUNNY     63  34  34 E7        30.28F                  
BILOXI         FAIR      61  33  35 VRB2      30.28F                  
6HR MIN TEMP:  40; 6HR MAX TEMP:  61;                                

PASCAGOULA     FAIR      61  32  33 E7        30.28F                  
6HR MIN TEMP:  35; 6HR MAX TEMP:  62;                                

GULFPORT       FAIR      61  33  35 E5        30.27F                  
6HR MIN TEMP:  41; 6HR MAX TEMP:  61;                                

$$

Return to Home page


Western Regional Climate Center, wrcc@dri.edu